DateTime,F1_A11,F1_S11,BsB_S11,BsG_S11,BsR_S11,BbsB_S11,BbsG_S11,BbsR_S11,BaB_A11,BaG_A11,BaR_A11,T_S11,U_S11,P_S11,T1_A11
2016-06-28T00:00:00Z,0000380,20000600,,,,,,,,,,26.2,03.5,0670.1,34.5
2016-06-28T00:01:00Z,0000380,20000600,,,,,,,,,,26.2,03.4,0670.1,34.5
2016-06-28T00:02:00Z,0000380,20000600,,,,,,,,,,26.1,03.4,0670.1,34.5
2016-06-28T00:03:00Z,0000380,60000600,,,,,,,,,,26.1,03.4,0670.1,34.5
2016-06-28T00:04:00Z,0000380,40000600,0000.86,0000.58,0000.37,-000.61,0000.05,0000.13,0000.11,0000.08,0000.11,26.3,03.3,0670.9,34.5
2016-06-28T00:05:00Z,0000380,00000600,0000.80,0000.65,0000.60,0000.00,-000.24,0000.25,-000.15,-000.05,0000.08,26.2,03.2,0671.0,34.5
2016-06-28T00:06:00Z,0000380,00000600,0000.77,0000.36,0000.32,0000.44,0000.08,0000.17,0000.16,-000.14,0000.02,26.3,03.2,0671.0,34.5
2016-06-28T00:07:00Z,0000380,00000600,0000.70,0000.85,0000.22,0000.58,0000.09,0000.08,-000.13,0000.15,-000.37,26.2,03.2,0670.9,34.5
2016-06-28T00:08:00Z,0000380,00000600,0001.36,0001.24,0000.85,0000.71,0000.30,0000.58,0000.14,-000.03,0000.34,26.2,03.2,0670.9,34.5
2016-06-28T00:09:00Z,0000380,00000600,0000.36,0000.64,0000.47,-000.33,-000.05,0000.57,-000.02,0000.03,-000.21,26.2,03.2,0670.9,34.5
2016-06-28T00:10:00Z,0000380,00000600,0001.02,0000.70,0000.31,-000.19,0000.38,0000.17,0000.08,0000.04,0000.25,26.2,03.0,0670.9,34.5
2016-06-28T00:11:00Z,0000380,00000600,0000.24,0000.16,0000.18,-000.36,0000.36,0000.38,0000.00,-000.02,-000.23,26.2,03.1,0671.0,34.5
2016-06-28T00:12:00Z,0000380,00000600,0001.41,0000.76,0000.36,-000.13,0000.24,0000.35,0000.03,0000.04,0000.14,26.2,03.0,0671.0,34.5
2016-06-28T00:13:00Z,0000380,00000600,0000.86,0000.71,0000.13,-000.02,0000.28,0000.60,-000.03,-000.06,0000.17,26.2,03.0,0671.0,34.5
2016-06-28T00:14:00Z,0000380,00000600,0000.57,0000.78,0000.35,0000.06,0000.22,0000.58,0000.08,0000.21,-000.16,26.2,03.0,0671.0,34.5
2016-06-28T00:15:00Z,0000380,00000600,0001.75,0000.44,0000.13,0000.25,0000.24,0000.20,-000.07,-000.07,0000.14,26.2,03.0,0671.0,34.5
2016-06-28T00:16:00Z,0000380,00000600,0001.02,0000.08,0000.31,-000.09,0000.72,0000.47,-000.01,-000.34,-000.28,26.2,03.0,0671.0,34.5
2016-06-28T00:17:00Z,0000380,00000600,0000.63,0000.95,0000.68,-000.13,0000.22,0000.25,-000.20,0000.09,0000.08,26.2,03.0,0671.0,34.5
2016-06-28T00:18:00Z,0000380,00000600,0000.86,0000.55,0000.57,-000.27,0000.30,0000.57,0000.27,0000.02,-000.14,26.2,03.0,0671.0,34.5
2016-06-28T00:19:00Z,0000380,00000600,0001.00,0000.11,0000.79,-000.54,0000.28,-000.03,-000.03,0000.17,0000.87,26.2,02.9,0671.0,34.5
2016-06-28T00:20:00Z,0000380,00000600,0000.33,0001.17,0000.05,0000.38,0000.52,-000.08,0000.01,0000.09,-000.41,26.2,02.9,0671.0,34.5
2016-06-28T00:21:00Z,0000380,00000600,0001.36,0000.39,0000.39,-000.08,0000.14,0000.11,0000.32,0000.12,-000.01,26.2,02.9,0671.0,34.5
2016-06-28T00:22:00Z,0000380,00000600,0000.37,0000.25,0000.38,0000.14,0000.14,0000.50,-000.09,0000.02,0000.25,26.2,02.9,0671.0,34.5
2016-06-28T00:23:00Z,0000380,00000600,0001.55,0000.59,0000.34,-000.30,0000.19,0000.03,0000.26,-000.10,-000.27,26.2,02.8,0671.0,34.5
2016-06-28T00:24:00Z,0000380,00000600,0000.03,0000.11,0000.74,0000.24,0000.52,0000.03,-000.46,-000.17,-000.33,26.2,02.9,0671.0,34.5
2016-06-28T00:25:00Z,0000380,00000600,0000.65,0000.88,0000.53,0000.52,0000.28,-000.16,0000.08,0000.28,0000.38,26.2,02.8,0671.0,34.5
2016-06-28T00:26:00Z,0000380,00000600,0000.36,0000.13,0000.45,-000.39,0000.03,-000.03,0000.30,-000.11,0000.07,26.3,02.9,0671.0,34.5
2016-06-28T00:27:00Z,0000380,00000600,-000.12,0000.93,-000.07,0000.44,0000.38,0000.14,-000.12,-000.07,-000.15,26.3,02.8,0671.0,34.5
2016-06-28T00:28:00Z,0000380,00000600,0000.59,0001.08,-000.02,-000.11,0000.63,0000.06,0000.10,0000.07,0000.07,26.3,02.8,0671.0,34.5
2016-06-28T00:29:00Z,0000380,00000600,0000.59,0000.65,-000.21,-000.25,0000.34,0000.16,-000.08,0000.16,0000.00,26.3,02.8,0671.0,34.5
2016-06-28T00:30:00Z,0000380,00000600,0001.22,0000.52,0000.28,-000.35,0000.25,0000.17,0000.14,-000.04,-000.10,26.3,02.8,0671.0,34.5
2016-06-28T00:31:00Z,0000380,00000600,0000.21,0000.20,0000.14,-000.36,-000.60,0000.06,0000.01,0000.14,0000.11,26.2,02.7,0671.0,34.5
2016-06-28T00:32:00Z,0000380,00000600,0000.85,0000.56,0000.04,0000.19,0000.16,0000.14,-000.18,-000.18,-000.29,26.2,02.7,0671.0,34.5
2016-06-28T00:33:00Z,0000380,00000600,0001.20,0000.85,0000.52,-000.57,0000.20,0000.35,0000.20,0000.20,0000.07,26.2,02.8,0671.0,34.5
2016-06-28T00:34:00Z,0000380,00000600,0000.82,0000.42,0000.35,-000.27,0000.34,-000.02,0000.02,-000.27,0000.16,26.3,02.7,0671.0,34.5
2016-06-28T00:35:00Z,0000380,00000600,0001.00,0000.68,-000.08,0000.09,0000.33,0000.06,0000.00,0000.11,-000.05,26.2,02.7,0671.0,34.5
2016-06-28T00:36:00Z,0000380,00000600,-000.23,0000.16,0000.16,0000.17,0000.16,0000.47,0000.00,0000.11,0000.22,26.2,02.6,0671.0,34.5
2016-06-28T00:37:00Z,0000380,00000600,0000.88,0000.21,0000.53,0000.03,0000.31,0000.27,0000.16,0000.11,-000.37,26.3,02.7,0671.0,34.5
2016-06-28T00:38:00Z,0000380,00000600,0000.75,0000.36,0000.05,-000.11,0000.50,0000.06,-000.30,-000.04,0000.35,26.3,02.7,0671.0,34.5
2016-06-28T00:39:00Z,0000380,00000600,-000.77,0000.82,0000.28,-000.35,-000.28,0000.13,0000.41,-000.17,0000.08,26.3,02.8,0671.0,34.5
2016-06-28T00:40:00Z,0000380,00000600,0001.11,0000.57,0000.15,0000.11,-000.17,0000.32,-000.18,0000.01,-000.25,26.3,02.7,0671.0,34.5
2016-06-28T00:41:00Z,0000380,00000600,0000.66,0000.32,0000.31,-000.20,-000.02,0000.13,0000.00,0000.29,0000.17,26.3,02.7,0671.0,34.5
2016-06-28T00:42:00Z,0000380,00000600,0000.80,0000.28,0000.30,0000.41,0000.19,0000.30,0000.12,-000.07,-000.07,26.2,02.7,0671.0,34.5
2016-06-28T00:43:00Z,0000380,00000600,-000.45,0000.21,0000.55,0000.25,0000.22,0000.28,-000.15,-000.06,0000.02,26.2,02.7,0671.0,34.5
2016-06-28T00:44:00Z,0000380,00000600,0000.69,0000.26,0000.16,-000.11,-000.28,-000.02,0000.11,0000.28,0000.21,26.2,02.8,0671.0,34.5
2016-06-28T00:45:00Z,0000380,00000600,0000.79,0000.20,0000.18,0000.19,0000.22,0000.25,0000.16,-000.13,-000.20,26.3,02.6,0671.0,34.5
2016-06-28T00:46:00Z,0000380,00000600,0000.57,0000.10,-000.11,-000.43,0000.28,0000.16,-000.16,-000.09,0000.05,26.3,02.7,0671.0,34.5
2016-06-28T00:47:00Z,0000380,00000600,0000.51,0000.23,0000.50,-000.11,0000.17,0000.08,0000.18,0000.15,0000.06,26.3,02.7,0671.0,34.5
2016-06-28T00:48:00Z,0000380,00000600,0000.17,-000.02,0000.08,-000.05,-000.14,0000.65,0000.06,-000.01,0000.34,26.2,02.7,0671.0,34.5
2016-06-28T00:49:00Z,0000380,00000600,0000.55,0000.93,0000.20,-000.08,0000.41,0000.17,-000.08,0000.12,-000.44,26.3,02.7,0671.1,34.5
2016-06-28T00:50:00Z,0000380,00000600,0000.41,-000.38,0000.62,0000.09,-000.30,0000.54,0000.17,-000.05,0000.26,26.3,02.7,0671.1,34.5
2016-06-28T00:51:00Z,0000380,00000600,0000.88,0000.66,0000.63,-000.02,0000.28,0000.14,0000.03,-000.04,-000.13,26.2,02.7,0671.0,34.5
2016-06-28T00:52:00Z,0000380,00000600,0001.16,0000.66,0000.25,0000.27,0000.19,0000.27,-000.02,0000.06,0000.11,26.3,02.7,0671.1,34.5
2016-06-28T00:53:00Z,0000380,00000600,0000.19,0000.86,0000.96,-000.88,0000.27,-000.02,-000.14,-000.10,-000.12,26.2,02.7,0671.1,34.5
2016-06-28T00:54:00Z,0000380,00000600,0000.76,0000.21,0000.59,-000.54,-000.03,0000.13,-000.11,-000.05,0000.00,26.3,02.7,0671.1,34.5
2016-06-28T00:55:00Z,0000380,00000600,0000.21,0000.67,0000.02,0000.13,0000.49,0000.36,0000.12,-000.14,-000.12,26.3,02.7,0671.1,34.5
2016-06-28T00:56:00Z,0000380,00000600,0000.46,0000.55,-000.21,-000.35,0000.05,-000.06,0000.03,0000.08,0000.11,26.3,02.6,0671.1,34.5
2016-06-28T00:57:00Z,0000380,40000600,,,,,,,,,,,,0671.2,34.5
2016-06-28T00:58:00Z,0000380,60000600,,,,,,,,,,26.1,02.9,0670.2,34.5
2016-06-28T00:59:00Z,0000380,20000600,,,,,,,,,,26.0,02.7,0670.2,34.5
2016-06-28T01:00:00Z,0000380,20000600,,,,,,,,,,26.0,02.7,0670.2,34.5
2016-06-28T01:01:00Z,0000380,20000600,,,,,,,,,,26.0,02.7,0670.2,34.5
2016-06-28T01:02:00Z,0000380,20000600,,,,,,,,,,26.0,02.7,0670.2,34.5
2016-06-28T01:03:00Z,0000380,60000600,,,,,,,,,,26.1,02.7,0670.2,34.5
2016-06-28T01:04:00Z,0000380,40000600,0000.57,-000.16,0000.36,0000.25,0000.05,0000.14,0000.19,-000.00,-000.09,26.3,02.6,0671.0,34.5
2016-06-28T01:05:00Z,0000380,00000600,0000.69,0000.28,-000.03,0000.31,0000.05,-000.49,-000.10,0000.03,0000.07,26.3,02.6,0671.1,34.5
2016-06-28T01:06:00Z,0000380,00000600,0000.61,0000.46,0001.03,0000.68,-000.14,0000.30,0000.02,0000.14,0000.16,26.3,02.6,0671.1,34.5
2016-06-28T01:07:00Z,0000380,00000600,0000.37,0000.81,0000.04,-000.38,-000.16,-000.13,-000.04,-000.14,-000.20,26.3,02.5,0671.1,34.5
2016-06-28T01:08:00Z,0000380,00000600,-000.23,-000.06,0000.17,0000.06,-000.14,0000.03,0000.21,-000.06,-000.21,26.3,02.6,0671.1,34.5
2016-06-28T01:09:00Z,0000380,00000600,0000.54,0000.87,-000.03,-000.52,0000.22,-000.11,-000.05,0000.10,0000.28,26.3,02.5,0671.1,34.5
2016-06-28T01:10:00Z,0000380,00000600,0000.19,0000.18,0000.24,-000.47,0000.13,-000.20,0000.01,0000.01,-000.08,26.3,02.6,0671.1,34.5
2016-06-28T01:11:00Z,0000380,00000600,0000.48,0000.73,0000.31,0000.16,0000.31,-000.08,-000.08,0000.07,-000.03,26.3,02.6,0671.1,34.5
2016-06-28T01:12:00Z,0000380,00000600,0000.19,0000.50,-000.28,-000.11,-000.16,0000.08,0000.23,0000.02,0000.04,26.3,02.6,0671.1,34.5
2016-06-28T01:13:00Z,0000380,00000600,-000.67,0000.64,0000.31,0000.02,0000.09,-000.02,-000.22,0000.05,0000.10,26.3,02.5,0671.1,34.5
2016-06-28T01:14:00Z,0000380,00000600,0000.77,0000.02,0000.05,-000.11,-000.09,-000.08,-000.01,-000.12,-000.15,26.3,02.5,0671.1,34.5
2016-06-28T01:15:00Z,0000380,00000600,0000.80,0000.95,0000.30,-000.03,0000.02,-000.28,0000.17,0000.15,-000.03,26.3,02.5,0671.1,34.5
2016-06-28T01:16:00Z,0000380,00000600,0000.09,0000.67,-000.13,0000.05,0000.36,0000.11,-000.04,-000.10,0000.26,26.3,02.5,0671.1,34.5
2016-06-28T01:17:00Z,0000380,00000600,-000.17,0001.25,0000.40,-000.17,0000.49,-000.27,-000.09,-000.17,-000.21,26.3,02.4,0671.1,34.5
2016-06-28T01:18:00Z,0000380,00000600,-000.52,0000.97,0000.25,0000.44,0000.53,-000.14,0000.04,0000.24,-000.08,26.3,02.4,0671.1,34.5
2016-06-28T01:19:00Z,0000380,00000600,0000.74,0000.69,0000.64,-000.30,0000.33,-000.24,-000.11,-000.13,0000.31,26.3,02.4,0671.1,34.5
2016-06-28T01:20:00Z,0000380,00000600,-000.83,0000.36,0000.58,-000.09,0000.22,0000.35,0000.14,-000.00,-000.40,26.3,02.3,0671.1,34.5
2016-06-28T01:21:00Z,0000380,00000600,0000.83,0000.56,-000.27,0000.30,0000.28,0000.35,0000.02,-000.15,0000.35,26.3,02.4,0671.1,34.5
2016-06-28T01:22:00Z,0000380,00000600,-000.06,0001.22,0000.03,0000.31,-000.02,0000.06,-000.07,0000.25,-000.07,26.3,02.3,0671.1,34.5
2016-06-28T01:23:00Z,0000380,00000600,-000.14,0000.64,0000.21,-000.05,0000.11,0000.13,-000.09,-000.14,0000.02,26.3,02.3,0671.1,34.5
2016-06-28T01:24:00Z,0000380,00000600,-000.47,0000.56,0000.64,0000.28,-000.34,0000.09,0000.13,-000.05,-000.32,26.3,02.3,0671.1,34.5
2016-06-28T01:25:00Z,0000380,00000600,0000.10,0000.47,0000.18,0000.19,-000.02,-000.58,-000.04,0000.02,0000.11,26.3,02.2,0671.1,34.5
2016-06-28T01:26:00Z,0000380,00000600,-000.52,0000.12,0000.17,-000.28,-000.50,-000.13,0000.34,-000.12,0000.17,26.3,02.2,0671.1,34.5
2016-06-28T01:27:00Z,0000380,00000600,0001.19,0000.67,0000.29,0000.39,-000.34,0000.08,-000.16,0000.14,0000.06,26.3,02.2,0671.1,34.5
2016-06-28T01:28:00Z,0000380,00000600,0000.00,0000.30,0000.05,-000.16,-000.34,0000.08,-000.07,0000.09,-000.50,26.3,02.2,0671.1,34.5
2016-06-28T01:29:00Z,0000380,00000600,-000.20,0000.19,-000.30,-000.49,0000.03,-000.03,0000.05,0000.13,0000.37,26.3,02.3,0671.1,34.5
2016-06-28T01:30:00Z,0000380,00000600,0000.40,0000.16,-000.15,-000.06,-000.22,-000.20,0000.04,-000.03,0000.14,26.3,02.3,0671.1,34.5
2016-06-28T01:31:00Z,0000380,00000600,0000.89,0000.10,0000.36,0000.20,0000.14,0000.03,0000.28,0000.18,-000.04,26.3,02.3,0671.2,34.5
2016-06-28T01:32:00Z,0000380,00000600,-000.08,0000.38,0000.17,0000.24,-000.02,0000.09,-000.46,-000.25,-000.09,26.3,02.2,0671.2,34.5
2016-06-28T01:33:00Z,0000380,00000600,-000.62,0000.14,-000.09,-000.91,-000.05,0000.06,0000.21,-000.09,0000.33,26.3,02.3,0671.1,34.5
2016-06-28T01:34:00Z,0000380,00000600,0000.77,0000.92,0000.37,0000.27,-000.09,0000.24,-000.02,0000.10,0000.08,26.3,02.3,0671.1,34.5
2016-06-28T01:35:00Z,0000380,00000600,0000.43,0000.43,0000.32,-000.19,-000.20,0000.00,0000.05,0000.03,-000.27,26.3,02.3,0671.1,34.5
2016-06-28T01:36:00Z,0000380,00000600,0000.81,0000.05,0000.07,0000.02,-000.03,0000.17,0000.33,0000.17,-000.03,26.3,02.2,0671.1,34.5
2016-06-28T01:37:00Z,0000380,00000600,-000.12,0000.31,0000.21,-000.46,-000.11,0000.27,-000.38,0000.17,0000.12,26.3,02.3,0671.1,34.5
2016-06-28T01:38:00Z,0000380,00000600,0000.07,0000.87,0000.02,0000.24,0000.09,0000.33,0000.01,-000.21,-000.11,26.3,02.3,0671.1,34.5
2016-06-28T01:39:00Z,0000380,00000600,0000.00,0001.34,-000.45,-000.61,0000.33,-000.09,0000.23,-000.09,0000.28,26.3,02.3,0671.1,34.5
2016-06-28T01:40:00Z,0000380,00000600,-000.42,0000.23,-000.30,-000.08,0000.24,0000.05,-000.23,-000.04,-000.43,26.3,02.2,0671.1,34.5
2016-06-28T01:41:00Z,0000380,00000600,-000.11,0000.32,-000.10,0000.58,0000.00,-000.03,0000.25,0000.09,0000.29,26.3,02.3,0671.1,34.5
2016-06-28T01:42:00Z,0000380,00000600,0001.29,-000.10,0000.51,-000.08,-000.05,0000.16,-000.23,-000.09,-000.14,26.3,02.1,0671.1,34.5
2016-06-28T01:43:00Z,0000380,00000600,-000.18,0000.51,-000.11,0000.00,-000.03,0000.09,0000.12,0000.03,-000.11,26.3,02.2,0671.1,34.5
2016-06-28T01:44:00Z,0000380,00000600,0000.28,0000.34,0000.29,-000.30,-000.16,-000.17,-000.03,-000.05,-000.06,26.3,02.2,0671.1,34.5
2016-06-28T01:45:00Z,0000380,00000600,0000.00,0000.45,-000.11,-000.11,-000.25,-000.11,0000.09,0000.08,0000.17,26.3,02.2,0671.1,34.5
2016-06-28T01:46:00Z,0000380,00000600,0001.40,0000.47,0000.02,-000.33,-000.27,-000.14,-000.12,-000.14,-000.26,26.3,02.2,0671.1,34.5
2016-06-28T01:47:00Z,0000380,00000600,0000.63,0000.47,0000.22,0000.43,-000.36,-000.06,-000.01,0000.23,0000.35,26.3,02.1,0671.1,34.5
2016-06-28T01:48:00Z,0000380,00000600,-000.08,0000.20,0000.55,-000.39,0000.22,0000.49,-000.06,-000.32,0000.01,26.3,02.1,0671.1,34.5
2016-06-28T01:49:00Z,0000380,00000600,0000.81,0000.47,-000.17,0000.20,-000.08,0000.19,-000.04,0000.13,-000.20,26.3,02.1,0671.1,34.5
2016-06-28T01:50:00Z,0000380,00000600,-000.49,0000.28,0000.39,-000.25,0000.05,-000.16,0000.17,0000.18,-000.05,26.3,02.1,0671.1,34.5
2016-06-28T01:51:00Z,0000380,00000600,0000.59,0000.71,0000.29,-000.17,-000.19,0000.28,0000.03,-000.18,0000.14,26.3,02.1,0671.1,34.5
2016-06-28T01:52:00Z,0000380,00000600,-000.86,-000.17,-000.05,-000.58,-000.13,-000.25,0000.11,0000.14,0000.08,26.3,02.2,0671.1,34.5
2016-06-28T01:53:00Z,0000380,00000600,0000.53,0000.63,0000.05,-000.36,0000.27,0000.32,0000.07,-000.04,-000.05,26.3,02.1,0671.1,34.5
2016-06-28T01:54:00Z,0000380,00000600,0000.40,0000.30,0000.44,0000.36,0000.38,0000.13,-000.06,0000.05,-000.02,26.3,02.2,0671.1,34.5
2016-06-28T01:55:00Z,0000380,00000600,0000.02,0000.25,-000.05,-000.02,-000.36,-000.03,-000.09,0000.23,0000.25,26.3,02.1,0671.1,34.5
2016-06-28T01:56:00Z,0000380,00000600,0000.82,0000.04,0000.16,-000.33,0000.45,0000.19,0000.14,-000.10,-000.30,26.3,02.1,0671.1,34.5
2016-06-28T01:57:00Z,0000380,40000600,,,,,,,,,,,,0671.0,34.5
2016-06-28T01:58:00Z,0000380,60000600,,,,,,,,,,26.2,02.4,0670.2,34.5
2016-06-28T01:59:00Z,0000380,20000600,,,,,,,,,,26.2,02.2,0670.2,34.5
2016-06-28T02:00:00Z,0000380,20000600,,,,,,,,,,26.2,02.2,0670.2,34.5
2016-06-28T02:01:00Z,0000380,20000600,,,,,,,,,,26.2,02.2,0670.2,34.5
2016-06-28T02:02:00Z,0000380,20000600,,,,,,,,,,26.2,02.2,0670.2,34.5
2016-06-28T02:03:00Z,0000380,60000600,,,,,,,,,,26.2,02.2,0670.2,34.5
2016-06-28T02:04:00Z,0000380,40000600,0000.44,0000.41,0000.20,-000.22,0000.03,0000.22,-000.11,-000.06,0000.02,26.3,02.1,0671.0,34.5
2016-06-28T02:05:00Z,0000380,00000600,-000.37,0000.00,0000.09,-000.39,-000.05,-000.05,0000.24,0000.10,0000.28,26.3,02.1,0671.1,34.5
2016-06-28T02:06:00Z,0000380,00000600,-000.89,-000.36,0000.55,0000.17,0000.06,0000.24,0000.11,-000.08,-000.33,26.3,02.1,0671.1,34.5
2016-06-28T02:07:00Z,0000380,00000600,0000.21,-000.32,0000.28,-000.72,-000.13,-000.05,-000.12,-000.03,0000.19,26.3,02.1,0671.1,34.5
2016-06-28T02:08:00Z,0000380,00000600,0000.17,0000.09,-000.20,-000.13,-000.13,-000.19,0000.00,0000.13,-000.08,26.3,02.0,0671.1,34.5
2016-06-28T02:09:00Z,0000380,00000600,0000.29,-000.02,0000.12,-000.33,0000.20,0000.32,0000.14,-000.02,0000.05,26.3,02.1,0671.1,34.5
2016-06-28T02:10:00Z,0000380,00000600,0000.87,-000.52,0000.15,-000.06,0000.28,0000.36,-000.11,0000.05,-000.17,26.3,02.1,0671.1,34.5
2016-06-28T02:11:00Z,0000380,00000600,0000.81,0000.21,0000.02,0000.14,0000.03,0000.16,-000.02,-000.20,-000.31,26.3,02.0,0671.0,34.5
2016-06-28T02:12:00Z,0000380,00000600,-000.11,-000.29,-000.02,0000.31,-000.06,0000.16,-000.04,-000.11,0000.32,26.3,02.0,0671.1,34.5
2016-06-28T02:13:00Z,0000380,00000600,0000.13,0000.05,-000.09,0000.25,-000.24,0000.02,0000.11,0000.26,-000.00,26.3,02.0,0671.0,34.5
2016-06-28T02:14:00Z,0000380,00000600,0000.72,0000.26,0000.01,0000.00,0000.09,0000.20,-000.00,-000.02,0000.14,26.3,02.0,0671.0,34.5
2016-06-28T02:15:00Z,0000380,00000600,0000.26,0000.06,0000.06,0000.06,-000.13,-000.08,-000.08,-000.09,-000.31,26.3,01.9,0671.0,34.5
2016-06-28T02:16:00Z,0000380,00000600,-000.11,-000.58,0000.42,-000.31,0000.06,0000.19,0000.04,-000.02,0000.38,26.3,02.0,0671.0,34.5
2016-06-28T02:17:00Z,0000380,00000600,0000.09,-000.22,0000.29,-000.41,0000.09,0000.16,0000.06,0000.17,-000.09,26.3,02.0,0671.0,34.5
2016-06-28T02:18:00Z,0000380,00000600,0000.13,0000.24,0000.11,0000.36,0000.03,-000.11,0000.07,0000.16,-000.09,26.3,02.0,0671.0,34.5
2016-06-28T02:19:00Z,0000380,00000600,-000.24,0000.13,-000.36,0000.24,0000.02,-000.58,-000.24,-000.27,0000.10,26.3,01.9,0671.0,34.5
2016-06-28T02:20:00Z,0000380,00000600,0000.27,-000.19,0000.35,-000.02,-000.41,0000.22,0000.29,0000.16,0000.03,26.3,02.0,0671.0,34.5
2016-06-28T02:21:00Z,0000380,00000600,0000.41,-000.24,0000.27,0000.05,-000.25,0000.09,-000.13,0000.01,-000.08,26.3,02.0,0671.0,34.5
2016-06-28T02:22:00Z,0000380,00000600,-000.02,0000.15,-000.05,-000.38,-000.09,0000.09,0000.04,-000.31,-000.20,26.3,02.0,0671.0,34.5
2016-06-28T02:23:00Z,0000380,00000600,0000.10,0000.22,0000.52,0000.85,-000.24,0000.02,-000.10,0000.23,0000.31,26.3,02.0,0671.0,34.5
2016-06-28T02:24:00Z,0000380,00000600,-000.08,0000.25,0000.60,-000.11,-000.17,0000.32,0000.08,0000.03,-000.13,26.3,02.0,0671.0,34.5
2016-06-28T02:25:00Z,0000380,00000600,-000.13,0000.38,0000.10,-000.14,0000.25,0000.32,0000.24,0000.10,0000.22,26.3,02.0,0671.0,34.5
2016-06-28T02:26:00Z,0000380,00000600,0000.44,0000.23,0000.02,-000.30,0000.14,0000.14,-000.18,-000.02,-000.11,26.3,02.0,0671.0,34.5
2016-06-28T02:27:00Z,0000380,00000600,-000.10,0000.70,0000.07,-001.15,-000.09,0000.28,-000.16,-000.20,-000.15,26.3,01.9,0671.0,34.5
2016-06-28T02:28:00Z,0000380,00000600,-000.44,-000.07,0000.05,-000.33,0000.05,0000.36,0000.14,0000.29,0000.01,26.3,01.9,0671.0,34.5
2016-06-28T02:29:00Z,0000380,00000600,0000.57,0000.16,0000.16,-000.61,-000.02,0000.00,-000.19,-000.25,0000.04,26.3,01.9,0671.0,34.5
2016-06-28T02:30:00Z,0000380,00000600,0000.32,0000.18,0000.50,0000.24,-000.19,0000.00,0000.22,-000.17,0000.23,26.3,01.9,0671.0,34.5
2016-06-28T02:31:00Z,0000380,00000600,0000.41,0000.23,0000.41,-000.20,-000.20,-000.08,-000.06,0000.36,-000.40,26.3,01.9,0671.0,34.5
2016-06-28T02:32:00Z,0000380,00000600,-000.45,0000.19,-000.06,-000.39,0000.14,-000.36,-000.12,-000.15,0000.19,26.3,01.9,0671.0,34.5
2016-06-28T02:33:00Z,0000380,00000600,0000.55,0000.26,-000.22,0000.13,-000.02,0000.20,0000.16,-000.10,0000.17,26.3,01.8,0671.0,34.5
2016-06-28T02:34:00Z,0000380,00000600,0000.25,0000.14,-000.04,0000.28,-000.20,-000.17,0000.09,0000.23,0000.08,26.3,01.8,0671.0,34.5
2016-06-28T02:35:00Z,0000380,00000600,0000.20,0000.00,0000.38,-001.01,-000.30,-000.33,-000.11,-000.06,-000.26,26.3,01.9,0671.0,34.5
2016-06-28T02:36:00Z,0000380,00000600,0000.10,-000.22,0000.75,-000.08,-000.13,0000.19,0000.06,0000.08,-000.09,26.3,01.9,0671.0,34.5
2016-06-28T02:37:00Z,0000380,00000600,-002.38,-000.25,0000.25,0000.03,-000.09,-000.35,-000.04,-000.06,0000.03,26.3,01.8,0671.0,34.5
2016-06-28T02:38:00Z,0000380,00000600,-000.56,0000.03,0000.44,0000.52,-000.36,0000.08,0000.14,-000.05,-000.06,26.3,01.8,0671.0,34.5
2016-06-28T02:39:00Z,0000380,00000600,0000.75,-000.14,0000.09,0000.08,0000.25,-000.05,0000.06,0000.11,0000.04,26.3,01.8,0671.0,34.5
2016-06-28T02:40:00Z,0000380,00000600,0000.16,0000.52,0000.26,0000.31,0000.20,-000.05,-000.15,-000.18,-000.09,26.3,01.8,0671.0,34.5
2016-06-28T02:41:00Z,0000380,00000600,0000.83,-000.28,0000.22,-000.14,0000.16,-000.32,0000.05,0000.08,0000.26,26.3,01.8,0671.0,34.5
2016-06-28T02:42:00Z,0000380,00000600,-000.56,-000.24,0000.22,-000.14,0000.31,-000.14,-000.06,0000.13,0000.12,26.3,01.8,0671.0,34.5
2016-06-28T02:43:00Z,0000380,00000600,0001.09,0000.14,0000.09,-000.79,-000.02,0000.08,0000.18,-000.02,0000.20,26.3,01.8,0671.0,34.5
2016-06-28T02:44:00Z,0000380,00000600,-001.06,-000.43,-000.11,-000.61,0000.22,-000.28,-000.03,-000.01,-000.66,26.3,01.8,0671.1,34.5
2016-06-28T02:45:00Z,0000380,00000600,0000.12,0000.08,0000.06,-000.46,-000.02,0000.09,-000.00,0000.03,0000.19,26.3,01.9,0671.1,34.5
2016-06-28T02:46:00Z,0000380,00000600,-000.20,-000.25,0000.50,0000.57,-000.33,-000.06,0000.15,0000.21,0000.18,26.3,01.9,0671.0,34.5
2016-06-28T02:47:00Z,0000380,00000600,-000.57,0001.08,0000.15,-000.35,-000.25,-000.11,-000.05,-000.11,-000.05,26.3,01.9,0671.0,34.5
2016-06-28T02:48:00Z,0000380,00000600,0000.78,-000.25,0000.33,0000.06,-000.09,0000.38,-000.17,-000.08,0000.23,26.3,01.9,0671.0,34.5
2016-06-28T02:49:00Z,0000380,00000600,0000.22,-000.02,-000.36,0000.13,0000.03,0000.16,0000.27,0000.17,-000.07,26.3,01.9,0671.0,34.5
2016-06-28T02:50:00Z,0000380,00000600,-000.16,0000.30,0000.02,-000.55,-000.05,-000.16,-000.08,-000.16,-000.40,26.3,01.9,0671.0,34.5
2016-06-28T02:51:00Z,0000380,00000600,-000.88,-000.29,0000.17,-000.82,0000.03,0000.17,-000.04,-000.11,0000.18,26.3,01.8,0671.0,34.5
2016-06-28T02:52:00Z,0000380,00000600,0000.57,0000.02,0000.15,0000.17,0000.17,0000.06,0000.02,0000.11,-000.22,26.3,01.9,0671.0,34.5
2016-06-28T02:53:00Z,0000380,00000600,-000.35,0000.27,-000.03,0000.35,-000.22,0000.19,0000.10,0000.16,0000.44,26.3,01.8,0671.0,34.5
2016-06-28T02:54:00Z,0000380,00000600,0000.72,0000.70,0000.42,0000.11,0000.09,0000.13,-000.00,-000.07,-000.18,26.3,01.8,0671.0,34.5
2016-06-28T02:55:00Z,0000380,00000600,0001.04,0000.02,-000.19,-000.28,0000.25,0000.00,-000.14,-000.00,0000.27,26.3,01.8,0671.0,34.5
2016-06-28T02:56:00Z,0000380,00000600,-000.09,-000.21,0000.21,0000.05,-000.22,0000.11,-000.05,-000.01,-000.30,26.3,01.9,0670.9,34.5
2016-06-28T02:57:00Z,0000380,40000600,,,,,,,,,,,,0670.9,34.5
2016-06-28T02:58:00Z,0000380,60000600,,,,,,,,,,26.2,02.0,0670.1,34.5
2016-06-28T02:59:00Z,0000380,20000600,,,,,,,,,,26.2,02.0,0670.1,34.5
2016-06-28T03:00:00Z,0000380,20000600,,,,,,,,,,26.2,02.0,0670.1,34.5
2016-06-28T03:01:00Z,0000380,20000600,,,,,,,,,,26.2,02.0,0670.0,34.5
2016-06-28T03:02:00Z,0000380,20000600,,,,,,,,,,26.2,02.0,0670.0,34.5
2016-06-28T03:03:00Z,0000380,60000600,,,,,,,,,,26.2,02.0,0670.0,34.5
2016-06-28T03:04:00Z,0000380,40000600,0000.64,0000.08,0000.00,-000.20,-000.11,-000.19,-000.05,0000.22,0000.30,26.3,01.9,0670.8,34.5
2016-06-28T03:05:00Z,0000380,00000600,0000.57,0000.54,0000.22,-000.06,0000.25,0000.22,0000.21,-000.06,-000.21,26.3,01.8,0670.8,34.5
2016-06-28T03:06:00Z,0000380,00000600,0000.32,-000.32,-000.03,-000.16,-000.14,-000.05,-000.19,0000.11,0000.10,26.3,01.8,0670.8,34.5
2016-06-28T03:07:00Z,0000380,00000600,0000.63,-000.23,0000.14,0000.09,-000.38,-000.38,0000.15,-000.09,0000.02,26.3,01.9,0670.8,34.5
2016-06-28T03:08:00Z,0000380,00000600,-000.36,-000.16,-000.40,-000.31,-000.24,-000.05,-000.12,0000.26,0000.29,26.3,01.9,0670.8,34.5
2016-06-28T03:09:00Z,0000380,00000600,-000.11,-000.05,-000.28,-000.54,-000.25,0000.06,-000.04,-000.10,-000.34,26.3,01.8,0670.8,34.5
2016-06-28T03:10:00Z,0000380,00000600,0000.30,0000.10,0000.07,0000.08,-000.06,-000.14,0000.25,-000.15,-000.40,26.3,01.9,0670.8,34.5
2016-06-28T03:11:00Z,0000380,00000600,-000.06,0000.05,0000.24,-000.30,-000.24,-000.17,-000.34,0000.07,0000.40,26.3,02.0,0670.8,34.5
2016-06-28T03:12:00Z,0000380,00000600,0001.10,-000.24,0000.16,-000.60,0000.06,0000.05,0000.25,-000.02,0000.20,26.3,01.9,0670.8,34.5